Location: Unspecified
(0.0000°N, 0.0000°E)
Time: 16:39:46
(UTC+00:00)

S-56A Canister/Altair - Pass Details

Date: 22 December 2018
Orbit: 633 x 2499 km, 38.9° (Epoch: 17 June)

Event Time Altitude Azimuth Distance (km) Brightness Sun altitude
Rises 20:41:53 0° 224° (SW) 2,963 11.4 -36.8°
Reaches altitude 10° 20:44:12 10° 220° (SW) 2,010 10.3 -37.3°
Enters shadow 20:44:56 15° 219° (SW) 1,721 9.9 -37.5°
Maximum altitude 20:48:35 64° 138° (SE) 713 - -38.3°
Drops below altitude 10° 20:53:28 10° 56° (ENE) 2,239 - -39.3°
Sets 20:56:10 0° 54° (NE) 3,339 - -39.9°
